DMSP 5D-2 F13 DEB, 40490

Orbit data source: Space-Track

DMSP 5D-2 F13 DEB, 40490 is space debris in SSO originally from a launch on Fri, 24 Mar 1995 UTC launched from the Air Force Western Test Range (AFWTR). Debris objects in space refer to the collection of defunct objects orbiting the Earth. Examples of debris include non-operational satellites, rocket bodies, and fragments generated from explosions, collisions, or faulty payload assembly.

Loading next visibility...
Identifier
40490, 1995-015CD
Orbit
SSO
Country
Flag of USUS
Related business
Manufacturer
Unknown
Mission
Spacecraft
Bus & Motor
Unknown
Mass
Unknown
Launch date (UTC)
1995-03-24 (31 years ago)
Launch vehicle
Unknown
Launch site
Air Force Western Test Range (AFWTR)
Object type
Payload
Rocket body
Debris
Shape & HBR
Unknown shape, 0.1 m
Radar Cross Section
Medium (>0.1 m² and <1 m²)

Expand to show TLE details & history
Last TLE update: 4 days ago

TLE from 4 days ago
0 DMSP 5D-2 F13 DEB
1 40490U 95015CD  26224.18849736  .00000760  00000-0  56921-3 0  9998
2 40490  98.7756 357.3970 0154395  20.9373 339.8019 13.91961749576423
Epoch: 2026-08-12T04:31Z
TLE epoch observation values (Epoch: 2026-08-12T04:31:26.171Z)
Latitude
-0.00005°
Longitude
-31.10805°
Altitude
819.054 km
Speed
7.497 km/s
True Right ascension
23h 49m 35s
True Declination
0° 00' 00"
Sunlit
Object was in full shadow at epoch
Visualization orbit readout
Latitude
Unknown
Longitude
Unknown
Altitude
Unknown
Speed
Unknown
Apparent Right ascension
Unknown
Apparent Declination
Unknown
Sunlit
N/A
Visualization observer readout
Local Sidereal Time
19:48:50
Azimuth
Unknown
Elevation
Unknown
Doppler factor
Unknown
Orbital elements
Apogee altitude
1,031.626 km
Perigee altitude
806.299 km
Semi-major axis
7,297.099 km
Eccentricity
0.01544
Inclination
98.7756°
RAAN
357.397°
Arg. of periapsis
20.9373°
True anomaly
339.17979°
Mean anomaly
339.8019°
Eccentric anomaly
339.49198°
Mean motion
3.48191 °/min
Orbital period
103.39 mins
BSTAR
0.00056921
Loading maneuver chart data...
Computing Atmospheric mass density...

Documentation

Showing up to 5 results
|